Terug naar catalogus

STARLINK-4263

ActiefCommunicatieVLEO
NORAD 53010·PAYLOAD·🇺🇸 United States

Gelanceerd Jul 7, 2022 vanaf Cape Canaveral Space Force Station

Loading…

Volgende Passages (komende 24 uur)

TLE

VersSource: CelesTrak SupGP

Epoch: Sep 15, 2026, 02:36 UTC

1 53010C 22076AA  26258.10881944  .00036182  00000+0  10689-2 0  2587
2 53010  53.1574 309.2736 0001263  92.9106 229.5218 15.34374803    13

Volg STARLINK-4263 in realtime met AllMySat

Download on the App Store